Weather Roundup
Issued by NWS Corpus Christi, TX

Home | Current Version | Previous Version | Text Only | Print | Product List | Glossary On
Versions: 1 2 3 4 5 6 7 8 9 10 11 12 13 14 15 16 17 18 19 20 21 22 23 24 25 26 27 28 29 30 31 32 33 34 35 36 37 38 39 40 41 42 43 44 45 46 47 48 49 50
000
ASUS44 KCRP 040110
HRRCRP

SOUTH TEXAS REGIONAL WEATHER ROUNDUP
NATIONAL WEATHER SERVICE CORPUS CHRISTI TX
800 PM CDT TUE MAY 03 2016


TXZ229>244-040200-
...CORPUS CHRISTI AREA OBSERVATIONS...

CITY           SKY/WX    TMP DP  RH WIND       PRES   REMARKS
CORPUS CHRISTI PTCLDY    75  53  46 E7        29.98R
NAS CORPUS CHR MOCLDY    73  58  59 E7        29.98R
ROCKPORT       CLEAR     76  50  40 N7        29.98R
KINGSVILLE NAS PTCLDY    72  59  63 SE8       29.98R
ALICE          PTCLDY    75  51  43 E5        29.97R
FALFURRIAS     PTCLDY    77  52  42 CALM      29.97R
$$

...VICTORIA AREA OBSERVATIONS...

CITY           SKY/WX    TMP DP  RH WIND       PRES   REMARKS
VICTORIA       CLEAR     71  55  56 N5        29.99R
BEEVILLE       FAIR      75  52  44 NE5       29.99R
PLEASANTON     CLEAR     74  46  36 NE6       30.01R
SAN ANTONIO    CLEAR     71  49  45 E9        30.01R
$$

...LAREDO AREA OBSERVATIONS...

CITY           SKY/WX    TMP DP  RH WIND       PRES   REMARKS
LAREDO         MOCLDY    79  54  41 E5        29.98R
COTULLA        CLEAR     80  46  30 E9        29.99R
DEL RIO        CLEAR     77  55  46 SE8       29.97R
MCALLEN        CLOUDY    72  56  57 W3        30.00R
HEBBRONVILLE   CLOUDY    78  49  36 SE5       29.99S
$$

...OTHER TEXAS OBSERVATIONS...

CITY           SKY/WX    TMP DP  RH WIND       PRES   REMARKS
BROWNSVILLE    CLOUDY    71  61  70 NE8       29.99R
HOUSTON        CLEAR     69  50  50 N7        29.98R
COL. STATION   CLEAR     68  47  46 N8        30.01R
AUSTIN         CLEAR     70  50  49 NE8       30.01R
WACO           CLEAR     67  50  54 N7        30.04R
FORT WORTH     PTCLDY    67  45  45 NE5       30.04R
WICHITA FALLS  MOCLDY    60  55  83 CALM      30.04R
LUBBOCK        PTCLDY    63  47  55 CALM      30.10R
EL PASO        PTCLDY    81  26  13 N8        30.03S
$$

...MARINE OBSERVATIONS...

STATION/POSITION TIME  SKY/WX   TEMP    WIND        PRES    VSBY  WAVE   SWELL
                                AIR SEA DIR/SP/G                  HT/PER HT/PER
                 (UTC)          (F)     (DEG/KT/KT) (MB)    (MI)  (FT/S) (FT/S)
PORT ARANSAS     0100            73 77   90/  7/  8 1016.1R
BUOY 90 E PORT A 0050            71 77   10/  4/  6 1014.9R         3/ 5   3/ 5
BUOY 45 SE BAFFI 0050            71 75   30/ 12/ 14 1014.6R         4/ 6   3/ 6
BUOY 200 E PT IS 0050                                 N/A           5/ 6   2/11
BUOY 15 E GALVES 0050            74 76  330/ 12/ 14 1014.1R         2/ 8   2/ 8
$$




USA.gov is the U.S. government's official web portal to all federal, state and local government web resources and services.